Location: Baix
(44.7118°N, 4.7648°E)
Time: 02:29:43
(UTC+00:00)

Cosmos 1674 - Pass Details

Date: 07 August 2020
Orbit: 495 x 517 km, 82.5° (Epoch: 27 September)

Event Time Altitude Azimuth Distance (km) Brightness Sun altitude
Rises 01:33:55 0° 350° (N) 2,594 7.0 -24.3°
Reaches altitude 10° 01:36:03 10° 349° (NNW) 1,707 6.0 -24.1°
Enters shadow 01:38:53 50° 337° (NNW) 645 3.3 -23.8°
